Time,TemperatureF,DewpointF,PressureIn,WindDirection,WindDirectionDegrees,WindSpeedMPH,WindSpeedGustMPH,Humidity,HourlyPrecipIn,Conditions,Clouds,dailyrainin,SolarRadiationWatts/m^2,SoftwareType,DateUTC
2013-01-05 00:21:00,31.3,22.0,29.92,South,190,0.0,2.0,69,0.00,,,0.00,0,weatherlink.com 1.10,2013-01-05 05:21:00,
2013-01-05 00:36:00,30.7,22.0,29.93,South,190,0.0,1.0,70,0.00,,,0.00,0,weatherlink.com 1.10,2013-01-05 05:36:00,
2013-01-05 00:52:00,29.9,21.0,29.93,South,190,0.0,0.0,70,0.00,,,0.00,0,weatherlink.com 1.10,2013-01-05 05:52:00,
2013-01-05 01:07:00,29.0,21.0,29.93,South,190,0.0,0.0,72,0.00,,,0.00,0,weatherlink.com 1.10,2013-01-05 06:07:00,
2013-01-05 01:21:00,28.2,23.0,29.94,South,190,0.0,0.0,80,0.00,,,0.00,0,weatherlink.com 1.10,2013-01-05 06:21:00,
2013-01-05 01:36:00,27.5,21.0,29.95,South,190,0.0,0.0,75,0.00,,,0.00,0,weatherlink.com 1.10,2013-01-05 06:36:00,
2013-01-05 01:52:00,26.9,20.0,29.96,South,190,0.0,0.0,76,0.00,,,0.00,0,weatherlink.com 1.10,2013-01-05 06:52:00,
2013-01-05 02:07:00,26.2,20.0,29.96,South,190,0.0,0.0,77,0.00,,,0.00,0,weatherlink.com 1.10,2013-01-05 07:07:00,
2013-01-05 02:22:00,25.7,20.0,29.97,South,190,1.0,3.0,78,0.00,,,0.00,0,weatherlink.com 1.10,2013-01-05 07:22:00,
2013-01-05 02:37:00,25.2,20.0,29.98,South,190,1.0,2.0,79,0.00,,,0.00,0,weatherlink.com 1.10,2013-01-05 07:37:00,
2013-01-05 02:52:00,24.8,19.0,29.99,South,190,0.0,1.0,80,0.00,,,0.00,0,weatherlink.com 1.10,2013-01-05 07:52:00,
2013-01-05 03:07:00,24.5,19.0,29.99,South,190,0.0,2.0,80,0.00,,,0.00,0,weatherlink.com 1.10,2013-01-05 08:07:00,
2013-01-05 03:22:00,24.3,19.0,29.99,South,190,0.0,2.0,81,0.00,,,0.00,0,weatherlink.com 1.10,2013-01-05 08:22:00,
2013-01-05 03:52:00,25.2,21.0,30.00,South,190,1.0,2.0,83,0.00,,,0.00,0,weatherlink.com 1.10,2013-01-05 08:52:00,
2013-01-05 04:07:00,26.0,22.0,30.01,South,190,0.0,3.0,83,0.00,,,0.00,0,weatherlink.com 1.10,2013-01-05 09:07:00,
2013-01-05 04:22:00,26.9,22.0,30.01,SSW,207,0.0,3.0,82,0.00,,,0.00,0,weatherlink.com 1.10,2013-01-05 09:22:00,
2013-01-05 04:52:00,30.2,23.0,30.01,SE,135,0.0,5.0,74,0.00,,,0.00,0,weatherlink.com 1.10,2013-01-05 09:52:00,
2013-01-05 05:07:00,31.1,23.0,30.02,ESE,109,0.0,3.0,71,0.00,,,0.00,0,weatherlink.com 1.10,2013-01-05 10:07:00,
2013-01-05 05:22:00,31.9,23.0,30.02,ENE,61,4.0,5.0,69,0.00,,,0.00,0,weatherlink.com 1.10,2013-01-05 10:22:00,
2013-01-05 05:37:00,32.6,22.0,30.03,SE,128,0.0,5.0,66,0.00,,,0.00,0,weatherlink.com 1.10,2013-01-05 10:37:00,
2013-01-05 05:53:00,32.7,22.0,30.03,SE,136,1.0,5.0,66,0.00,,,0.00,0,weatherlink.com 1.10,2013-01-05 10:53:00,
2013-01-05 06:08:00,33.2,23.0,30.05,South,185,1.0,5.0,66,0.00,,,0.00,0,weatherlink.com 1.10,2013-01-05 11:08:00,
2013-01-05 06:23:00,33.7,23.0,30.06,ENE,63,2.0,5.0,66,0.00,,,0.00,0,weatherlink.com 1.10,2013-01-05 11:23:00,
2013-01-05 06:37:00,34.2,23.0,30.07,SSE,163,0.0,6.0,65,0.00,,,0.00,0,weatherlink.com 1.10,2013-01-05 11:37:00,
2013-01-05 06:52:00,34.3,24.0,30.08,South,169,1.0,4.0,65,0.00,,,0.00,0,weatherlink.com 1.10,2013-01-05 11:52:00,
2013-01-05 07:08:00,34.6,24.0,30.09,SSW,209,5.0,7.0,65,0.00,,,0.00,0,weatherlink.com 1.10,2013-01-05 12:08:00,
2013-01-05 07:24:00,35.0,24.0,30.11,South,184,0.0,8.0,65,0.00,,,0.00,5,weatherlink.com 1.10,2013-01-05 12:24:00,
2013-01-05 07:39:00,35.2,24.0,30.11,SW,229,1.0,7.0,65,0.00,,,0.00,12,weatherlink.com 1.10,2013-01-05 12:39:00,
2013-01-05 07:54:00,35.6,24.0,30.12,SSW,207,4.0,9.0,64,0.00,,,0.00,23,weatherlink.com 1.10,2013-01-05 12:54:00,
2013-01-05 08:09:00,35.8,25.0,30.13,South,177,7.0,7.0,65,0.00,,,0.00,42,weatherlink.com 1.10,2013-01-05 13:09:00,
2013-01-05 08:25:00,36.1,25.0,30.13,South,180,0.0,9.0,64,0.00,,,0.00,51,weatherlink.com 1.10,2013-01-05 13:25:00,
2013-01-05 08:39:00,36.4,25.0,30.14,SE,134,1.0,10.0,63,0.00,,,0.00,67,weatherlink.com 1.10,2013-01-05 13:39:00,
2013-01-05 08:54:00,36.7,25.0,30.16,SSE,157,2.0,7.0,63,0.00,,,0.00,81,weatherlink.com 1.10,2013-01-05 13:54:00,
2013-01-05 09:10:00,37.0,25.0,30.17,SSW,199,0.0,7.0,63,0.00,,,0.00,79,weatherlink.com 1.10,2013-01-05 14:10:00,
2013-01-05 09:24:00,37.3,25.0,30.17,SW,229,1.0,5.0,62,0.00,,,0.00,144,weatherlink.com 1.10,2013-01-05 14:24:00,
2013-01-05 09:39:00,38.1,26.0,30.17,South,181,3.0,7.0,61,0.00,,,0.00,146,weatherlink.com 1.10,2013-01-05 14:39:00,
2013-01-05 09:55:00,38.9,26.0,30.17,South,185,3.0,7.0,60,0.00,,,0.00,76,weatherlink.com 1.10,2013-01-05 14:55:00,
2013-01-05 10:10:00,39.5,26.0,30.18,SSE,160,2.0,8.0,58,0.00,,,0.00,322,weatherlink.com 1.10,2013-01-05 15:10:00,
2013-01-05 10:25:00,40.3,26.0,30.18,SSW,194,4.0,6.0,56,0.00,,,0.00,381,weatherlink.com 1.10,2013-01-05 15:25:00,
2013-01-05 10:41:00,40.9,26.0,30.17,SSW,202,1.0,9.0,56,0.00,,,0.00,404,weatherlink.com 1.10,2013-01-05 15:41:00,
2013-01-05 10:55:00,41.8,26.0,30.17,SW,217,3.0,9.0,54,0.00,,,0.00,424,weatherlink.com 1.10,2013-01-05 15:55:00,
2013-01-05 11:11:00,42.1,26.0,30.16,SW,219,4.0,12.0,53,0.00,,,0.00,434,weatherlink.com 1.10,2013-01-05 16:11:00,
2013-01-05 11:26:00,42.5,26.0,30.17,South,180,14.0,17.0,52,0.00,,,0.00,446,weatherlink.com 1.10,2013-01-05 16:26:00,
2013-01-05 11:42:00,43.0,26.0,30.17,SSE,154,8.0,16.0,51,0.00,,,0.00,454,weatherlink.com 1.10,2013-01-05 16:42:00,
2013-01-05 11:56:00,43.0,26.0,30.16,South,178,10.0,19.0,51,0.00,,,0.00,450,weatherlink.com 1.10,2013-01-05 16:56:00,
2013-01-05 12:11:00,43.5,26.0,30.17,SSW,205,2.0,17.0,51,0.00,,,0.00,448,weatherlink.com 1.10,2013-01-05 17:11:00,
2013-01-05 12:26:00,43.5,25.0,30.16,South,175,10.0,23.0,48,0.00,,,0.00,445,weatherlink.com 1.10,2013-01-05 17:26:00,
2013-01-05 12:57:00,43.5,25.0,30.16,WSW,250,13.0,13.0,48,0.00,,,0.00,424,weatherlink.com 1.10,2013-01-05 17:57:00,
2013-01-05 13:12:00,43.5,25.0,30.16,South,187,6.0,15.0,48,0.00,,,0.00,394,weatherlink.com 1.10,2013-01-05 18:12:00,
2013-01-05 13:27:00,43.5,24.0,30.16,West,259,11.0,14.0,47,0.00,,,0.00,390,weatherlink.com 1.10,2013-01-05 18:27:00,
2013-01-05 13:42:00,43.5,24.0,30.16,WSW,258,8.0,17.0,46,0.00,,,0.00,218,weatherlink.com 1.10,2013-01-05 18:42:00,
2013-01-05 13:58:00,43.5,24.0,30.16,SW,232,5.0,11.0,47,0.00,,,0.00,315,weatherlink.com 1.10,2013-01-05 18:58:00,
2013-01-05 14:12:00,43.0,24.0,30.16,South,187,5.0,13.0,47,0.00,,,0.00,309,weatherlink.com 1.10,2013-01-05 19:12:00,
2013-01-05 14:28:00,43.0,24.0,30.18,WSW,254,5.0,9.0,47,0.00,,,0.00,246,weatherlink.com 1.10,2013-01-05 19:28:00,
2013-01-05 14:43:00,42.9,25.0,30.18,WSW,251,5.0,10.0,49,0.00,,,0.00,236,weatherlink.com 1.10,2013-01-05 19:43:00,
2013-01-05 14:58:00,43.0,24.0,30.18,SSW,203,4.0,11.0,48,0.00,,,0.00,160,weatherlink.com 1.10,2013-01-05 19:58:00,
2013-01-05 15:13:00,43.2,24.0,30.19,South,189,3.0,8.0,47,0.00,,,0.00,186,weatherlink.com 1.10,2013-01-05 20:13:00,
2013-01-05 15:29:00,42.9,24.0,30.19,SSW,201,1.0,9.0,48,0.00,,,0.00,107,weatherlink.com 1.10,2013-01-05 20:29:00,
2013-01-05 15:45:00,42.6,24.0,30.21,SSW,211,4.0,8.0,49,0.00,,,0.00,49,weatherlink.com 1.10,2013-01-05 20:45:00,
2013-01-05 15:58:00,42.1,25.0,30.21,South,190,3.0,5.0,50,0.00,,,0.00,23,weatherlink.com 1.10,2013-01-05 20:58:00,
2013-01-05 16:15:00,41.4,25.0,30.20,SSW,202,0.0,6.0,52,0.00,,,0.00,12,weatherlink.com 1.10,2013-01-05 21:15:00,
2013-01-05 16:29:00,40.6,25.0,30.21,SSW,202,3.0,3.0,54,0.00,,,0.00,5,weatherlink.com 1.10,2013-01-05 21:29:00,
2013-01-05 16:45:00,37.5,25.0,30.21,SSW,202,0.0,2.0,60,0.00,,,0.00,0,weatherlink.com 1.10,2013-01-05 21:45:00,
2013-01-05 16:58:00,35.9,25.0,30.21,SSW,202,0.0,1.0,64,0.00,,,0.00,0,weatherlink.com 1.10,2013-01-05 21:58:00,
2013-01-05 17:15:00,34.2,25.0,30.22,SSW,202,2.0,3.0,69,0.00,,,0.00,0,weatherlink.com 1.10,2013-01-05 22:15:00,
2013-01-05 17:29:00,33.6,25.0,30.22,SSW,202,0.0,1.0,72,0.00,,,0.00,0,weatherlink.com 1.10,2013-01-05 22:29:00,
2013-01-05 17:44:00,32.3,25.0,30.23,SSW,202,0.0,2.0,74,0.00,,,0.00,0,weatherlink.com 1.10,2013-01-05 22:44:00,
2013-01-05 18:00:00,31.7,25.0,30.24,SSW,202,0.0,0.0,76,0.00,,,0.00,0,weatherlink.com 1.10,2013-01-05 23:00:00,
2013-01-05 18:14:00,31.3,25.0,30.24,SSW,202,0.0,0.0,77,0.00,,,0.00,0,weatherlink.com 1.10,2013-01-05 23:14:00,
2013-01-05 18:30:00,30.8,25.0,30.25,SSW,202,0.0,3.0,78,0.00,,,0.00,0,weatherlink.com 1.10,2013-01-05 23:30:00,
2013-01-05 18:44:00,30.8,25.0,30.26,SSW,202,0.0,3.0,78,0.00,,,0.00,0,weatherlink.com 1.10,2013-01-05 23:44:00,
2013-01-05 19:00:00,30.5,24.0,30.26,SSW,202,0.0,3.0,78,0.00,,,0.00,0,weatherlink.com 1.10,2013-01-06 00:00:00,
2013-01-05 19:16:00,29.7,24.0,30.26,SSW,202,0.0,4.0,79,0.00,,,0.00,0,weatherlink.com 1.10,2013-01-06 00:16:00,
2013-01-05 19:30:00,29.5,24.0,30.25,SSW,202,0.0,3.0,80,0.00,,,0.00,0,weatherlink.com 1.10,2013-01-06 00:30:00,
2013-01-05 19:46:00,29.3,24.0,30.26,ESE,123,0.0,0.0,81,0.00,,,0.00,0,weatherlink.com 1.10,2013-01-06 00:46:00,
2013-01-05 20:00:00,28.7,24.0,30.24,ESE,123,0.0,1.0,81,0.00,,,0.00,0,weatherlink.com 1.10,2013-01-06 01:00:00,
2013-01-05 20:16:00,28.3,24.0,30.24,ESE,123,0.0,3.0,82,0.00,,,0.00,0,weatherlink.com 1.10,2013-01-06 01:16:00,
2013-01-05 20:30:00,28.4,24.0,30.25,ESE,123,0.0,1.0,82,0.00,,,0.00,0,weatherlink.com 1.10,2013-01-06 01:30:00,
2013-01-05 20:46:00,28.1,23.0,30.25,ESE,123,0.0,1.0,81,0.00,,,0.00,0,weatherlink.com 1.10,2013-01-06 01:46:00,
2013-01-05 21:01:00,27.3,23.0,30.24,ESE,123,0.0,2.0,82,0.00,,,0.00,0,weatherlink.com 1.10,2013-01-06 02:01:00,
2013-01-05 21:17:00,26.9,22.0,30.24,ESE,123,0.0,2.0,83,0.00,,,0.00,0,weatherlink.com 1.10,2013-01-06 02:17:00,
2013-01-05 21:32:00,27.0,23.0,30.24,SE,129,0.0,2.0,83,0.00,,,0.00,0,weatherlink.com 1.10,2013-01-06 02:32:00,
2013-01-05 21:47:00,26.6,22.0,30.23,SE,129,0.0,3.0,83,0.00,,,0.00,0,weatherlink.com 1.10,2013-01-06 02:47:00,
2013-01-05 22:01:00,26.2,22.0,30.23,SE,130,0.0,3.0,84,0.00,,,0.00,0,weatherlink.com 1.10,2013-01-06 03:01:00,
2013-01-05 22:17:00,25.9,22.0,30.24,SE,130,0.0,1.0,84,0.00,,,0.00,0,weatherlink.com 1.10,2013-01-06 03:17:00,
2013-01-05 22:31:00,25.9,22.0,30.23,SE,130,0.0,0.0,84,0.00,,,0.00,0,weatherlink.com 1.10,2013-01-06 03:31:00,
2013-01-05 22:47:00,25.6,22.0,30.23,SE,132,0.0,3.0,85,0.00,,,0.00,0,weatherlink.com 1.10,2013-01-06 03:47:00,
2013-01-05 23:02:00,25.6,22.0,30.21,SE,132,2.0,3.0,85,0.00,,,0.00,0,weatherlink.com 1.10,2013-01-06 04:02:00,
2013-01-05 23:18:00,25.6,22.0,30.22,SE,135,0.0,3.0,85,0.00,,,0.00,0,weatherlink.com 1.10,2013-01-06 04:18:00,
2013-01-05 23:33:00,26.1,22.0,30.21,SE,136,0.0,3.0,85,0.00,,,0.00,0,weatherlink.com 1.10,2013-01-06 04:33:00,
2013-01-05 23:47:00,26.4,23.0,30.18,SE,136,0.0,2.0,85,0.00,,,0.00,0,weatherlink.com 1.10,2013-01-06 04:47:00,